KF7FMI-13 Weather Reports


Display with metric or nautical units.
time (UTC)temp
F
wind
direction
speed
MPH
gust
MPH
rain 1hr
in
rain 24hr
in
rain mn
in
humidity
%
barometer
mb
20260509023515 67 285 8.0 10.0 0.00 0.00 0.00 37 1018.5
20260509022519 68 272 7.0 8.0 0.00 0.00 0.00 36 1018.4
20260509021524 69 270 10.0 15.0 0.00 0.00 0.00 34 1018.3
20260509020528 70 270 12.0 16.0 0.00 0.00 0.00 33 1018.2
20260509015533 71 272 13.0 16.0 0.00 0.00 0.00 32 1018.1
20260509014519 71 269 11.0 13.0 0.00 0.00 0.00 34 1018.1
20260509013523 71 272 13.0 15.0 0.00 0.00 0.00 33 1018.0
20260509012548 73 272 9.0 11.0 0.00 0.00 0.00 31 1017.9
20260509011532 73 268 8.0 14.0 0.00 0.00 0.00 28 1017.8
20260509010518 73 265 11.0 13.0 0.00 0.00 0.00 28 1017.8
20260509005543 74 267 10.0 12.0 0.00 0.00 0.00 28 1017.8
20260509004527 75 277 7.0 13.0 0.00 0.00 0.00 28 1017.8
20260509003551 74 272 8.0 11.0 0.00 0.00 0.00 27 1017.7
20260509002517 76 292 6.0 8.0 0.00 0.00 0.00 26 1017.8
20260509001521 75 232 8.0 12.0 0.00 0.00 0.00 24 1017.7
20260509000526 76 259 7.0 11.0 0.00 0.00 0.00 25 1017.8
20260508235550 75 280 8.0 11.0 0.00 0.00 0.00 24 1017.7
20260508234517 75 247 10.0 16.0 0.00 0.00 0.00 24 1017.7
20260508233542 75 259 8.0 10.0 0.00 0.00 0.00 25 1017.7
20260508232527 75 270 13.0 17.0 0.00 0.00 0.00 24 1017.8
20260508231711 75 264 11.0 17.0 0.00 0.00 0.00 25 1017.9
20260508230516 75 262 9.0 16.0 0.00 0.00 0.00 24 1017.7
20260508225521 75 263 9.0 13.0 0.00 0.00 0.00 25 1017.7
20260508224525 75 272 9.0 13.0 0.00 0.00 0.00 25 1017.7
20260508223530 75 266 12.0 15.0 0.00 0.00 0.00 26 1017.7
20260508222516 75 278 12.0 17.0 0.00 0.00 0.00 25 1017.7
20260508221540 76 234 12.0 19.0 0.00 0.00 0.00 23 1017.8
20260508220524 75 225 11.0 14.0 0.00 0.00 0.00 22 1017.8
20260508215528 74 223 13.0 17.0 0.00 0.00 0.00 24 1017.9
20260508214527 75 251 11.0 17.0 0.00 0.00 0.00 26 1017.9
20260508213519 74 229 8.0 14.0 0.00 0.00 0.00 28 1017.9
20260508212543 74 217 11.0 16.0 0.00 0.00 0.00 30 1017.9
20260508211522 74 256 10.0 16.0 0.00 0.00 0.00 32 1017.8
20260508210520 74 247 8.0 13.0 0.00 0.00 0.00 30 1017.9
20260508205519 73 223 12.0 16.0 0.00 0.00 0.00 28 1017.7
20260508204517 72 238 11.0 17.0 0.00 0.00 0.00 30 1017.8
20260508203515 72 252 6.0 10.0 0.00 0.00 0.00 33 1017.9
20260508202551 72 263 7.0 10.0 0.00 0.00 0.00 33 1017.8
20260508201518 71 187 7.0 9.0 0.00 0.00 0.00 32 1017.9
20260508200522 72 210 9.0 11.0 0.00 0.00 0.00 33 1017.8
20260508195527 70 217 5.0 11.0 0.00 0.00 0.00 34 1017.8
20260508194531 69 223 8.0 12.0 0.00 0.00 0.00 33 1017.8
20260508193517 69 196 9.0 13.0 0.00 0.00 0.00 34 1017.8
20260508192521 70 192 8.0 13.0 0.00 0.00 0.00 32 1017.8
20260508191526 70 203 8.0 14.0 0.00 0.00 0.00 31 1017.9
20260508190530 71 197 9.0 13.0 0.00 0.00 0.00 33 1018.0
20260508185516 69 220 5.0 8.0 0.00 0.00 0.00 36 1018.0
20260508184521 69 168 7.0 10.0 0.00 0.00 0.00 35 1018.1
20260508183525 67 208 7.0 10.0 0.00 0.00 0.00 37 1018.2
20260508182529 68 216 15.0 17.0 0.00 0.00 0.00 36 1018.1
20260508181515 67 240 9.0 13.0 0.00 0.00 0.00 38 1018.2
20260508180521 66 212 12.0 17.0 0.00 0.00 0.00 38 1018.1
20260508175524 66 219 11.0 16.0 0.00 0.00 0.00 39 1018.2
20260508174528 65 205 11.0 17.0 0.00 0.00 0.00 42 1018.3
20260508173533 64 218 9.0 12.0 0.00 0.00 0.00 48 1018.4
20260508172519 63 195 10.0 12.0 0.00 0.00 0.00 46 1018.2
20260508171523 61 172 10.0 13.0 0.00 0.00 0.00 49 1018.2
20260508170527 61 181 9.0 11.0 0.00 0.00 0.00 49 1018.2
20260508165653 60 191 9.0 11.0 0.00 0.00 0.00 52 1018.1
20260508164518 61 173 9.0 10.0 0.00 0.00 0.00 51 1018.1
20260508163523 61 197 8.0 10.0 0.00 0.00 0.00 48 1018.1
20260508162527 60 185 9.0 12.0 0.00 0.00 0.00 53 1018.1
20260508161531 58 166 9.0 10.0 0.00 0.00 0.00 58 1018.0
20260508160523 58 184 9.0 11.0 0.00 0.00 0.00 59 1017.9
20260508155522 57 189 10.0 11.0 0.00 0.00 0.00 62 1017.9
20260508154527 56 170 8.0 10.0 0.00 0.00 0.00 63 1017.9
20260508153525 55 176 11.0 13.0 0.00 0.00 0.00 63 1017.9
20260508152517 55 197 10.0 11.0 0.00 0.00 0.00 65 1017.7
20260508151542 54 161 10.0 11.0 0.00 0.00 0.00 65 1017.6
20260508150520 54 183 10.0 12.0 0.00 0.00 0.00 65 1017.5
20260508145518 53 181 9.0 10.0 0.00 0.00 0.00 65 1017.6
20260508144517 53 182 10.0 11.0 0.00 0.00 0.00 65 1017.6
20260508143515 52 204 8.0 10.0 0.00 0.00 0.00 69 1017.7
20260508142525 52 169 9.0 11.0 0.00 0.00 0.00 69 1017.4
20260508141610 52 166 10.0 12.0 0.00 0.00 0.00 68 1017.4
20260508140516 51 184 8.0 10.0 0.00 0.00 0.00 68 1017.2
20260508135520 51 157 8.0 10.0 0.00 0.00 0.00 68 1017.1
20260508134525 51 169 8.0 10.0 0.00 0.00 0.00 67 1017.0
20260508133549 51 163 7.0 9.0 0.00 0.00 0.00 69 1017.0
20260508132515 49 160 7.0 9.0 0.00 0.00 0.00 71 1016.8
20260508131540 48 167 2.0 7.0 0.00 0.00 0.00 75 1016.7
20260508130524 46 0.0 0.0 0.00 0.00 0.00 78 1016.8
20260508125527 44 0.0 0.0 0.00 0.00 0.00 81 1016.8
20260508124552 43 0.0 0.0 0.00 0.00 0.00 80 1016.7
20260508123519 44 0.0 0.0 0.00 0.00 0.00 78 1016.7
20260508122523 45 0.0 0.0 0.00 0.00 0.00 77 1016.5
20260508121532 45 191 2.0 4.0 0.00 0.00 0.00 76 1016.7
20260508120531 45 153 5.0 7.0 0.00 0.00 0.00 75 1016.7
20260508115518 45 149 4.0 5.0 0.00 0.00 0.00 74 1016.7
20260508114522 45 166 4.0 5.0 0.00 0.00 0.00 73 1016.7
20260508113526 46 176 3.0 6.0 0.00 0.00 0.00 72 1016.7
20260508112530 45 0.0 0.0 0.00 0.00 0.00 72 1016.5
20260508111537 45 0.0 0.0 0.00 0.00 0.00 71 1016.5
20260508110521 45 0.0 0.0 0.00 0.00 0.00 71 1016.5
20260508105545 46 0.0 0.0 0.00 0.00 0.00 70 1016.5
20260508104610 44 202 1.0 4.0 0.00 0.00 0.00 71 1016.5
20260508103536 44 0.0 0.0 0.00 0.00 0.00 72 1016.5
20260508102520 45 0.0 0.0 0.00 0.00 0.00 70 1016.5
20260508101524 45 172 2.0 4.0 0.00 0.00 0.00 67 1016.2
20260508100529 45 177 3.0 4.0 0.00 0.00 0.00 66 1016.2
20260508095535 44 0.0 0.0 0.00 0.00 0.00 66 1016.2
20260508094519 44 0.0 0.0 0.00 0.00 0.00 64 1016.2
20260508093525 45 0.0 0.0 0.00 0.00 0.00 61 1016.2
20260508092524 46 0.0 0.0 0.00 0.00 0.00 60 1016.3
20260508091521 46 0.0 0.0 0.00 0.00 0.00 58 1016.2
20260508090519 47 0.0 0.0 0.00 0.00 0.00 55 1016.2
20260508085518 48 0.0 0.0 0.00 0.00 0.00 54 1016.3
20260508084516 48 158 2.0 5.0 0.00 0.00 0.00 52 1016.3
20260508083526 48 160 6.0 7.0 0.00 0.00 0.00 51 1016.3
20260508082530 48 142 2.0 5.0 0.00 0.00 0.00 50 1016.3
20260508081516 48 0.0 0.0 0.00 0.00 0.00 50 1016.2
20260508080536 49 138 3.0 6.0 0.00 0.00 0.00 47 1016.1
20260508075520 49 150 4.0 5.0 0.00 0.00 0.00 47 1016.1
20260508074524 49 0.0 0.0 0.00 0.00 0.00 47 1016.2
20260508073528 50 158 0.0 3.0 0.00 0.00 0.00 45 1016.2
20260508072612 50 0.0 0.0 0.00 0.00 0.00 48 1016.2
20260508071519 52 166 7.0 9.0 0.00 0.00 0.00 45 1016.1
20260508070523 52 142 4.0 6.0 0.00 0.00 0.00 44 1016.1
20260508065607 53 158 1.0 4.0 0.00 0.00 0.00 44 1016.1
20260508064531 52 359 2.0 5.0 0.00 0.00 0.00 47 1016.1
20260508063517 52 0.0 0.0 0.00 0.00 0.00 49 1016.0
20260508062522 53 45 0.0 3.0 0.00 0.00 0.00 50 1016.0
20260508061546 55 139 5.0 6.0 0.00 0.00 0.00 48 1015.9
20260508060551 55 152 6.0 6.0 0.00 0.00 0.00 49 1015.9
20260508055517 55 153 6.0 7.0 0.00 0.00 0.00 50 1015.9
20260508054521 55 146 4.0 5.0 0.00 0.00 0.00 51 1015.9
20260508053525 56 144 6.0 6.0 0.00 0.00 0.00 51 1015.8
20260508052530 57 147 4.0 5.0 0.00 0.00 0.00 51 1015.8
20260508051516 57 153 7.0 8.0 0.00 0.00 0.00 51 1015.7
20260508050520 58 152 9.0 9.0 0.00 0.00 0.00 51 1015.7
20260508045524 58 146 9.0 10.0 0.00 0.00 0.00 51 1015.7
20260508044529 59 160 9.0 10.0 0.00 0.00 0.00 52 1015.7
20260508043515 60 137 9.0 10.0 0.00 0.00 0.00 52 1015.7
20260508042520 61 135 8.0 9.0 0.00 0.00 0.00 51 1015.7
20260508041524 61 154 8.0 9.0 0.00 0.00 0.00 51 1015.8
20260508040528 63 149 8.0 8.0 0.00 0.00 0.00 49 1015.6
20260508035527 63 137 7.0 8.0 0.00 0.00 0.00 50 1015.6
20260508034519 63 143 6.0 7.0 0.00 0.00 0.00 50 1015.5
20260508033523 64 138 6.0 7.0 0.00 0.00 0.00 47 1015.4
20260508032521 65 144 6.0 6.0 0.00 0.00 0.00 47 1015.5
20260508031540 66 155 6.0 6.0 0.00 0.00 0.00 47 1015.5
20260508030518 66 142 5.0 6.0 0.00 0.00 0.00 47 1015.5
20260508025517 67 154 5.0 5.0 0.00 0.00 0.00 47 1015.5
20260508024527 68 140 4.0 4.0 0.00 0.00 0.00 42 1015.5